Home   Weather   Calgary   Past weeks

Flag for Canada Past Weather in Calgary, Alberta, Canada — Yesterday and Last 2 Weeks

Now
36 °F

Passing clouds.


Feels Like: 31 °F
Forecast: 17 / 31 °F
Wind: 6 mph from Southeast

Location: Calgary International

Current Time: Jan 20, 2017 at 5:41:32 pm

Latest Report: Jan 20, 2017 at 5:00 pm


Visibility: 40 mi

Pressure: 29.40 "Hg (25.76 "Hg at 1063m altitude)

Humidity: 52%

Dew Point: 19 °F

Location of CalgaryLocation

Past Weather in Calgary — Graph

°F

Calgary Temperature Yesterday

Maximum temperature yesterday: 50 °F (at 3:00 pm)
Minimum temperature yesterday: 32 °F (at 3:00 am)
Average temperature yesterday: 38 °F

High & Low Weather Summary for the Past Weeks

 TemperatureHumidityPressure
High50 °F (Jan 19, 3:00 pm)93% (Jan 5, 8:24 pm)30.46 "Hg (Jan 5, 8:24 pm)
Low-9 °F (Jan 9, 8:00 am)28% (Jan 19, 3:00 pm)29.31 "Hg (Jan 19, 1:00 pm)
Average17 °F64%29.97 "Hg
* Reported Jan 5 4:00 pm — Jan 20 4:00 pm, Calgary, Weather by CustomWeather, © 2017

Note: Actual official high and low records may vary slightly from our data, if they occured in-between our weather recording intervals... More about our weather records

Advertising

Calgary Weather History for the Previous 24 Hours

Scroll right to see more
 ConditionsComfort  
Time TempWeatherWind HumidityBarometerVisibility
4:00 pm
Fri, Jan 20
39 °FPassing clouds.3 mph45%29.39 "Hg40 mi
3:00 pm43 °FPassing clouds.3 mph34%29.38 "Hg40 mi
2:00 pm43 °FPassing clouds.5 mph31%29.39 "Hg40 mi
1:00 pm41 °FPassing clouds.6 mph39%29.39 "Hg40 mi
12:00 pm39 °FPassing clouds.5 mph36%29.41 "Hg40 mi
11:00 am37 °FPassing clouds.5 mph38%29.43 "Hg40 mi
10:00 am32 °FPassing clouds.2 mph51%29.44 "Hg40 mi
9:00 am27 °FPassing clouds.5 mph54%29.44 "Hg40 mi
8:00 am28 °FPassing clouds.5 mph55%29.44 "Hg40 mi
7:00 am32 °FPassing clouds.2 mph47%29.43 "Hg15 mi
6:00 am30 °FClear.6 mph51%29.44 "Hg15 mi
5:00 am34 °FPassing clouds.No wind44%29.43 "Hg15 mi
4:00 am32 °FPassing clouds.3 mph51%29.43 "Hg15 mi
3:00 am32 °FPassing clouds.2 mph51%29.43 "Hg15 mi
2:00 am28 °FPassing clouds.2 mph64%29.43 "Hg15 mi
1:00 am30 °FPassing clouds.No wind59%29.42 "Hg15 mi
12:00 am28 °FPassing clouds.2 mph64%29.43 "Hg15 mi
11:00 pm
Thu, Jan 19
32 °FPassing clouds.3 mph60%29.41 "Hg15 mi
10:00 pm32 °FPassing clouds.5 mph55%29.42 "Hg15 mi
9:00 pm37 °FPassing clouds.9 mph48%29.41 "Hg15 mi
8:00 pm39 °FPassing clouds.3 mph42%29.40 "Hg15 mi
7:00 pm41 °FPassing clouds.8 mph39%29.39 "Hg15 mi
6:00 pm39 °FPassing clouds.9 mph45%29.39 "Hg15 mi
5:00 pm43 °FScattered clouds.10 mph39%29.36 "Hg40 mi
Weather by CustomWeather, © 2017

See weather overviewHow to use our weather pages